Wind_Speed
8 8 9 9 10 10 10 10 10 10 10 9 7 4 2 3 6 9 12 13 14 14 14 13 13 13 12 11 10 9 8 6 6 6 7 7 8 8 8 8 8 8 8 9 10 11 12 13 13 14 14 14 14 15 15 15 15 15 15 15 14 13 13 12 11 11 11 11 11 11 10 10 10 10 9 9 8 8 8 8 8 8 8 7 6
9 7 7 7 8 8 8 8 9 9 9 8 8 7 5 3 1 3 7 10 13 14 14 14 14 13 13 13 11 10 9 7 6 6 7 7 7 7 8 8 8 8 8 9 10 10 10 10 12 12 12 11 11 13 13 14 13 13 14 14 14 14 13 13 13 12 11 11 11 11 11 11 10 10 10 9 8 8 7 7 7 7 7 7 6
11 9 7 6 6 6 7 7 7 7 7 7 7 7 6 5 3 1 2 5 9 11 13 14 14 14 14 13 12 12 11 9 8 7 7 7 8 7 7 7 8 8 8 9 10 10 9 9 10 10 10 9 10 11 12 12 12 12 12 13 13 14 14 14 14 13 12 12 12 12 12 11 10 10 10 9 9 8 7 7 6 7 7 7 7
13 12 10 8 6 5 5 5 6 6 6 6 6 6 5 5 4 3 2 2 5 8 10 12 13 14 14 13 13 12 12 11 10 9 8 9 8 8 7 7 7 7 8 9 10 10 9 9 9 9 9 9 10 10 11 12 12 12 13 14 14 15 15 16 16 15 14 13 13 13 13 12 11 11 11 10 10 9 8 7 7 7 7 7 7
12 12 11 10 9 7 5 4 4 4 4 5 5 5 5 4 4 3 2 1 2 4 7 9 11 12 13 14 14 13 13 12 12 11 11 10 10 9 9 8 8 8 8 8 9 9 9 9 9 9 9 10 11 11 12 13 14 15 15 15 15 16 16 16 17 16 16 15 14 14 13 12 12 11 12 11 11 10 10 9 8 8 8 8 8
11 11 11 11 10 9 8 6 5 4 3 3 3 3 3 4 3 3 2 2 1 1 3 6 9 10 12 13 13 14 14 13 13 12 12 11 11 10 10 10 10 10 9 9 9 9 9 10 10 9 9 10 10 11 12 14 15 15 15 14 15 15 16 16 16 16 16 16 15 15 14 13 13 12 12 12 12 12 11 11 10 10 10 10 10
9 10 10 10 10 10 9 8 7 5 4 3 2 2 2 2 2 2 2 2 1 0 1 3 5 8 10 11 12 13 13 13 13 13 12 11 11 11 11 11 11 11 10 9 9 9 9 9 10 10 9 9 10 11 12 13 14 15 14 14 14 14 14 14 14 15 15 15 15 15 15 14 14 13 13 13 14 13 13 12 12 12 11 11 11
7 7 8 8 9 9 9 9 8 7 7 5 4 4 3 2 1 1 1 1 1 1 1 1 3 5 7 9 11 11 12 13 14 14 13 12 12 11 11 11 11 10 10 9 9 10 9 9 10 11 10 10 10 11 11 12 13 13 13 13 13 13 13 13 13 14 15 15 15 15 15 15 15 14 14 15 15 14 14 14 14 13 13 13 13
5 5 6 6 7 7 8 8 8 8 8 7 6 5 5 5 4 4 3 2 2 2 2 2 2 3 5 6 8 10 11 12 13 14 14 13 12 11 11 10 10 10 10 10 10 10 10 11 11 11 10 11 11 11 12 12 12 12 12 12 12 12 12 13 13 14 14 15 15 15 15 16 15 15 16 16 15 15 15 14 15 15 14 14 15
5 5 5 5 6 6 7 7 8 8 8 8 8 7 7 6 6 6 6 5 4 4 4 4 4 4 4 5 6 7 9 10 11 12 12 13 13 12 12 11 11 11 11 10 11 11 11 11 11 11 11 12 12 12 12 13 12 12 12 12 12 12 12 12 13 13 14 14 15 15 16 16 16 16 16 16 16 15 15 15 15 16 16 16 16
6 6 6 6 6 6 6 7 7 7 8 8 8 8 8 7 7 7 7 8 7 7 6 6 5 5 6 6 6 7 8 9 10 10 11 12 13 13 13 13 13 13 12 12 12 12 11 12 12 12 12 12 12 13 13 13 13 13 13 13 13 13 13 13 14 14 14 14 15 15 15 16 16 16 17 16 16 16 16 16 17 17 17 17 18
7 7 7 7 7 7 7 7 8 8 8 8 8 8 8 8 8 8 7 8 8 9 9 8 8 7 7 7 7 8 8 9 10 10 10 11 12 13 14 14 14 14 14 13 13 13 13 13 13 13 13 13 13 13 14 14 14 14 15 14 14 14 14 15 15 15 15 15 15 15 15 15 16 16 17 17 17 17 17 17 18 18 18 18 19
10 9 8 8 7 8 8 8 8 9 9 9 9 9 9 8 8 8 8 8 8 8 9 10 10 10 9 9 9 9 9 10 10 10 11 11 12 13 14 14 15 15 15 14 14 14 14 14 14 14 14 14 14 14 15 15 15 15 15 16 16 16 16 16 15 15 15 16 16 17 17 17 16 16 16 17 17 17 18 18 18 18 19 19 19
12 11 10 10 9 9 8 9 9 9 10 10 10 10 10 10 10 9 9 9 9 9 9 9 10 11 11 12 12 11 11 11 11 12 12 12 13 13 14 14 15 15 16 15 15 15 15 15 15 15 15 15 15 15 15 16 16 16 16 17 17 17 17 17 16 16 15 16 16 17 18 18 18 18 17 17 17 17 18 18 18 19 19 20 20
12 11 11 11 10 9 9 9 10 10 10 11 11 11 12 12 12 11 11 11 10 10 10 10 10 10 11 12 14 14 13 13 13 13 14 14 14 15 15 15 15 16 16 16 16 16 16 16 16 17 16 16 16 16 16 17 17 17 18 18 18 18 18 18 18 17 17 17 17 17 17 18 19 19 19 19 19 18 18 18 19 19 20 20 20
11 11 10 10 10 10 9 9 9 10 10 11 11 12 12 13 13 13 13 13 13 12 12 12 11 11 11 12 14 15 15 15 15 15 15 16 16 16 16 16 16 17 17 17 17 17 17 18 18 18 18 18 18 18 18 18 18 18 19 19 19 19 19 19 19 19 18 18 18 18 18 19 19 19 20 20 20 20 20 19 19 19 20 20 20
10 10 9 8 9 9 9 9 9 9 9 10 11 11 12 13 13 14 14 15 15 14 14 14 13 13 13 13 14 14 15 16 17 17 18 18 17 17 17 17 18 18 19 19 19 18 19 19 19 20 20 20 20 20 20 20 20 19 20 20 20 20 20 20 20 20 20 20 20 20 20 20 21 21 21 21 21 21 21 21 20 20 20 20 20
9 9 9 8 8 8 8 8 8 8 8 9 9 10 11 12 13 14 15 15 16 16 16 16 16 15 15 15 15 15 16 16 16 17 18 19 20 20 19 19 19 20 20 20 20 20 20 20 21 21 21 21 21 21 21 21 21 21 21 21 21 21 21 22 22 22 22 22 22 21 21 22 22 22 23 22 22 22 22 22 22 21 21 21 21
11 11 11 11 10 9 9 8 8 8 8 9 9 10 11 11 12 13 14 15 16 17 17 17 17 17 17 17 17 17 17 17 17 17 18 19 20 21 22 22 22 23 22 22 21 21 21 22 22 22 23 23 23 23 22 22 22 22 22 22 22 23 23 23 23 23 23 23 23 23 23 23 23 23 24 24 23 22 23 23 23 22 22 22 22
12 13 13 13 13 12 11 11 11 11 11 11 11 11 11 11 12 13 14 15 16 17 18 19 19 19 19 19 19 19 19 19 19 19 19 19 19 20 21 22 24 25 25 25 24 23 23 23 23 23 24 24 24 24 24 24 24 24 24 24 24 24 24 24 24 24 25 25 25 25 25 24 24 24 24 25 24 24 23 23 23 23 23 23 23
12 13 14 15 15 15 15 15 14 14 14 14 14 14 13 13 14 14 15 15 16 17 18 19 20 21 21 21 21 21 21 21 22 22 21 21 21 21 21 22 23 24 24 25 25 25 25 25 25 25 25 25 25 25 25 25 25 25 25 25 25 25 25 25 25 25 25 25 25 26 26 25 25 25 25 25 25 25 24 24 24 24 23 23 23
13 14 15 16 17 17 17 17 18 18 18 18 18 18 17 17 17 17 17 17 17 18 19 20 21 22 22 22 23 23 23 23 24 24 24 24 23 23 23 23 23 24 24 24 24 25 25 26 27 27 27 27 27 27 27 27 27 27 26 26 26 26 26 25 26 26 26 26 26 26 26 26 26 26 26 26 26 26 25 25 25 25 25 24 24
14 14 15 17 18 19 19 20 20 20 20 21 21 21 21 20 20 20 20 20 20 20 20 20 21 22 23 23 24 24 25 25 25 26 26 27 26 26 25 25 25 25 25 24 24 24 24 24 25 26 27 27 28 28 28 28 29 29 28 28 28 28 28 28 28 28 28 28 28 28 27 27 27 27 27 27 27 27 27 27 26 26 26 26 26
15 15 15 17 18 19 20 21 22 22 22 23 23 23 23 24 23 23 23 23 23 23 23 23 23 23 23 23 24 25 25 26 26 26 28 28 28 28 28 27 27 27 27 27 26 26 25 25 25 25 25 26 27 27 27 28 28 29 29 29 29 29 30 30 30 30 30 30 30 29 29 29 29 29 29 29 28 28 28 28 28 28 28 27 27
15 15 15 16 17 18 19 21 22 23 23 23 24 24 25 25 26 26 26 26 26 26 26 25 25 25 24 24 24 24 25 26 26 27 28 29 29 30 30 30 29 29 29 29 30 30 29 27 26 26 26 26 26 26 26 26 27 27 28 28 28 29 29 30 30 30 30 30 30 30 30 29 29 29 29 29 30 30 30 30 30 30 29 29 29
16 16 16 16 16 17 18 19 21 22 22 23 24 24 25 25 26 27 28 29 29 29 29 28 28 28 27 26 26 26 26 26 26 26 27 28 29 30 31 32 32 32 32 32 32 33 32 31 30 28 28 28 28 28 27 27 27 27 27 27 28 28 29 29 29 29 29 29 29 29 29 28 28 28 28 29 29 29 30 31 31 31 31 31 31
16 16 16 16 17 17 18 19 19 20 21 22 23 24 24 25 25 26 27 29 30 31 31 31 31 31 30 29 29 28 28 28 28 27 26 27 28 29 31 32 33 33 34 34 35 35 35 35 34 32 31 31 31 30 30 29 29 29 29 29 29 29 29 30 30 30 30 29 29 29 28 28 28 28 28 28 28 28 29 29 30 31 32 33 33
16 16 16 17 17 18 18 19 20 21 21 22 22 23 23 24 25 26 27 28 30 31 32 32 33 33 33 32 32 32 31 31 30 29 28 29 29 29 30 32 33 34 35 35 36 37 37 37 37 37 35 34 34 34 33 33 32 32 32 32 31 31 31 31 31 31 31 30 30 30 30 29 29 29 29 29 29 29 29 29 30 30 31 32 33
17 17 17 17 17 18 18 19 20 21 22 23 23 24 24 25 26 26 27 28 29 31 32 33 33 34 34 35 35 35 35 34 33 32 31 32 33 32 32 33 33 34 35 35 36 36 37 38 40 40 39 38 37 37 37 36 36 36 35 35 35 34 34 34 34 34 33 33 33 32 32 32 32 31 31 31 31 31 31 31 31 31 31 31 32
17 18 18 17 17 18 18 19 20 21 22 23 24 25 25 26 26 27 28 28 29 30 31 33 34 35 35 35 37 37 37 37 36 36 34 35 36 35 36 36 35 35 35 35 36 36 37 38 40 40 40 40 40 40 40 40 39 39 39 39 38 38 38 38 37 37 37 36 36 36 36 35 35 35 34 34 34 34 34 33 33 33 32 32 33
16 17 18 18 19 19 19 20 20 21 22 23 24 25 26 26 27 27 28 29 29 30 31 33 34 35 36 36 37 38 39 39 39 39 37 37 39 39 39 40 38 37 37 37 37 36 37 38 39 40 40 41 42 42 42 42 42 42 42 42 41 41 41 41 41 41 41 40 40 40 39 39 39 38 38 38 38 37 37 37 37 36 35 35 35
17 17 18 19 19 20 21 22 22 23 24 24 24 25 25 26 27 28 29 29 29 30 31 32 34 35 36 37 38 39 39 39 39 40 40 40 41 42 42 42 41 40 39 39 39 38 38 38 39 40 39 40 42 42 42 42 43 44 44 44 44 44 43 44 44 44 44 44 43 43 42 42 42 42 41 41 41 41 40 40 40 39 39 39 38
18 19 19 20 20 21 22 23 24 25 26 26 26 26 26 26 27 28 29 30 30 30 31 31 32 33 35 37 38 39 40 40 40 41 41 42 43 43 44 44 44 43 42 42 42 41 40 40 41 41 40 41 43 42 42 42 42 43 44 45 45 45 45 45 45 45 46 46 45 45 45 45 44 44 44 44 43 43 43 43 42 42 42 42 41
21 21 22 23 23 23 24 24 25 26 27 27 28 28 28 28 28 28 29 30 31 31 31 31 32 33 34 35 37 39 39 40 41 42 42 43 44 44 45 46 45 45 44 44 45 44 43 43 43 43 41 42 44 43 42 43 43 43 43 44 44 44 45 45 45 45 45 45 45 45 46 46 46 46 46 45 45 45 45 44 44 44 44 43 44
24 24 25 25 25 25 25 26 27 28 29 29 30 29 29 29 29 29 30 30 31 32 32 31 32 33 34 34 36 37 38 39 40 41 42 44 45 46 47 47 47 47 47 47 47 46 46 45 45 45 44 44 45 43 43 44 44 44 44 45 45 45 45 45 45 45 45 45 45 45 45 45 46 46 46 46 46 46 46 46 45 45 44 44 44
26 26 27 27 27 27 27 28 29 30 31 31 32 32 32 32 32 32 31 32 32 32 32 32 33 33 34 34 35 36 37 38 40 40 41 42 44 46 47 47 47 48 49 48 49 49 48 48 47 48 47 47 47 46 44 44 45 46 46 47 47 47 47 46 46 45 45 45 45 45 44 45 45 45 46 46 46 46 46 46 46 45 45 44 44
26 26 26 27 27 28 28 29 30 31 32 33 33 34 34 35 35 35 34 34 34 34 34 34 34 34 34 35 35 36 37 38 39 40 41 41 42 44 45 46 47 48 49 48 49 50 49 50 50 50 50 49 49 49 47 46 46 47 47 47 48 48 49 48 48 47 47 47 47 47 46 45 45 46 46 46 46 46 46 46 46 45 45 44 44
25 25 25 26 27 28 29 30 31 32 33 34 35 35 36 36 37 37 37 37 37 37 37 37 37 37 37 37 37 38 38 39 40 41 42 42 43 44 44 45 46 47 48 48 48 49 50 50 51 51 51 51 51 50 50 49 49 49 49 49 49 49 49 49 49 49 49 49 49 49 49 48 47 47 47 47 47 46 46 46 46 46 45 45 45
25 25 25 26 27 28 30 31 32 33 34 35 36 37 38 38 39 39 40 40 40 41 41 41 41 41 41 41 41 41 41 41 42 42 43 44 44 45 46 46 46 47 47 48 48 49 50 51 52 52 53 53 52 52 52 52 51 51 51 51 50 50 50 50 50 50 50 50 51 51 51 51 50 50 49 49 48 48 48 48 47 47 46 46 45
26 26 26 27 28 29 31 32 34 35 36 37 38 38 39 40 41 42 42 43 43 43 44 44 44 44 44 44 44 44 44 44 45 45 46 46 46 47 48 48 48 48 48 48 48 49 50 51 52 53 54 54 54 53 54 54 53 52 52 52 51 51 51 50 50 50 50 51 51 52 52 52 53 52 52 51 51 51 50 50 49 49 48 48 47
28 28 28 28 29 30 32 34 35 37 38 39 40 40 41 42 43 43 44 44 45 45 46 46 46 46 46 47 47 47 47 47 47 48 48 49 49 49 50 50 50 50 50 49 49 50 51 52 52 53 54 54 54 54 54 54 54 53 53 53 52 52 52 51 51 51 51 51 52 52 53 53 54 54 54 54 54 54 53 52 52 52 51 50 50
31 31 31 31 31 32 33 35 37 38 40 41 42 43 43 44 45 46 46 46 46 47 47 48 48 48 48 48 49 49 49 49 49 49 50 50 51 51 51 52 52 52 52 52 52 52 52 52 53 53 53 54 54 54 54 54 53 53 53 53 53 54 53 53 53 53 53 54 54 54 55 55 55 55 55 56 56 56 56 55 55 54 54 53 53
34 34 34 34 34 34 35 37 38 40 41 42 43 44 45 46 47 48 48 48 48 48 49 49 50 50 50 51 51 51 51 51 51 51 51 51 52 52 53 53 53 54 54 54 54 54 54 54 54 54 54 54 54 54 53 53 53 53 53 53 53 53 54 54 54 54 54 54 54 55 55 56 57 57 57 57 57 57 57 57 57 57 57 56 56
37 37 38 37 37 37 38 39 40 41 42 44 45 46 47 48 49 50 51 51 51 51 51 51 52 52 53 53 53 54 54 53 53 52 52 52 53 53 54 54 54 54 54 55 56 56 56 55 55 55 55 54 54 54 53 53 53 52 52 52 52 52 53 53 54 54 54 54 54 54 55 55 56 57 57 58 58 58 58 58 58 59 59 59 58
40 41 41 40 40 40 40 41 42 43 44 46 47 48 49 50 51 52 53 53 53 54 54 54 54 54 54 54 55 55 55 55 55 55 54 54 54 54 55 55 55 55 55 55 55 56 56 56 56 55 55 55 55 55 55 55 54 54 54 53 53 53 52 53 53 53 55 55 55 55 55 55 55 56 57 57 58 58 58 58 58 59 59 59 60
42 43 44 43 43 42 43 44 45 46 47 49 49 50 51 52 53 54 55 56 56 56 56 56 56 56 56 56 56 57 57 57 57 57 57 57 57 56 56 57 57 57 57 57 57 57 57 57 57 57 57 57 57 57 56 56 56 56 56 56 56 55 54 54 53 53 53 55 56 57 57 57 57 57 57 58 58 59 59 59 59 59 59 59 60
45 46 46 46 45 45 45 46 47 49 50 52 53 54 55 56 57 58 59 59 60 59 59 59 59 58 58 58 58 58 59 59 59 59 59 59 60 60 60 60 60 60 60 60 60 60 60 60 61 61 61 61 60 60 60 60 60 59 59 59 59 59 58 57 56 55 54 53 55 57 58 58 59 59 59 59 60 60 60 60 60 60 60 60 60
47 48 49 49 48 48 48 48 50 51 53 54 56 57 58 59 60 61 61 62 62 62 62 61 61 60 60 60 60 60 61 61 62 62 62 62 62 62 62 63 63 64 64 64 65 65 65 66 66 66 66 66 66 66 66 65 65 65 64 64 64 64 63 63 62 61 60 57 56 58 59 60 61 61 61 62 62 62 62 62 62 62 62 61 61
48 49 50 50 50 49 50 50 51 53 54 56 57 58 59 60 60 61 61 62 62 63 63 63 63 62 62 62 62 62 63 64 65 65 65 65 64 64 64 65 65 66 66 67 67 68 68 69 70 70 71 71 71 72 72 71 71 71 71 70 70 70 70 70 69 68 67 66 64 62 62 63 63 64 65 65 64 65 65 65 65 65 65 64 64
48 49 50 50 50 50 51 51 52 54 55 57 58 59 59 60 60 61 61 62 63 63 64 64 64 64 64 64 64 64 64 65 66 67 68 68 68 67 67 67 67 67 68 68 69 70 70 71 71 72 72 73 73 74 74 74 75 75 75 74 74 75 75 75 75 74 74 73 72 70 68 67 66 66 67 68 68 68 68 68 68 67 67 67 67
48 50 50 50 50 50 50 51 53 54 56 57 58 59 60 61 62 63 63 64 65 66 66 66 66 66 66 66 66 66 66 67 68 69 70 71 71 71 71 71 70 70 70 70 70 71 72 73 74 74 75 75 76 76 76 76 76 76 76 76 76 77 77 78 78 78 78 78 78 77 76 74 72 70 70 71 71 71 70 70 71 71 70 70 70
Wind_Direction
50 54 57 58 60 61 64 69 74 77 77 76 75 78 105 209 223 225 226 225 224 223 224 225 227 230 232 235 239 244 246 245 246 252 255 254 253 254 257 260 263 265 266 266 266 265 264 264 265 265 267 264 262 264 268 271 268 258 251 249 245 242 241 244 252 257 259 262 263 263 262 261 260 259 257 255 255 256 253 249 245 240 235 231 230
44 44 49 52 54 56 56 58 65 70 74 77 79 79 79 79 156 224 227 228 228 229 229 229 230 231 233 235 239 245 254 259 262 263 265 266 262 261 261 261 261 262 265 267 269 270 268 264 262 264 268 269 265 267 269 269 266 260 251 247 245 243 243 245 251 257 260 261 263 263 261 259 257 255 252 249 247 247 245 241 237 233 228 223 219
45 42 40 40 43 47 48 49 53 57 62 68 74 79 84 84 84 108 212 225 228 230 231 232 233 235 235 236 239 243 249 258 264 267 267 268 270 269 267 265 264 264 266 269 272 274 272 267 266 267 268 271 268 267 264 261 259 256 251 249 249 249 250 253 256 260 262 261 261 261 259 257 253 250 246 244 239 235 232 228 224 221 221 217 214
44 42 40 36 32 30 31 36 41 45 49 53 58 62 69 77 84 94 115 197 219 225 227 229 232 234 236 239 242 245 249 254 259 261 261 261 267 271 272 271 269 267 267 268 271 274 275 272 273 273 270 268 264 258 254 255 257 255 253 253 254 256 257 259 261 262 262 260 259 259 257 253 249 245 242 240 234 227 222 220 214 212 215 216 217
41 41 40 37 34 29 19 12 15 24 35 44 47 48 50 53 60 69 83 121 191 214 222 225 228 232 236 239 243 247 252 255 257 259 260 260 263 268 272 274 272 271 269 269 270 272 270 268 269 271 270 266 261 255 252 254 257 256 254 253 256 258 260 261 263 261 259 257 257 257 255 252 247 243 241 237 231 226 222 221 217 216 218 222 225
39 37 37 35 33 32 27 17 2 353 354 14 33 42 42 41 42 40 44 56 92 201 219 224 227 230 234 237 241 245 249 253 256 259 262 264 265 265 268 271 273 273 273 275 275 271 267 265 264 264 265 265 262 258 254 254 254 254 253 253 255 257 258 260 260 258 256 254 254 253 252 250 248 244 240 236 231 227 225 225 224 224 226 229 232
33 33 32 31 29 27 27 24 17 3 347 332 326 341 7 27 34 30 23 21 26 20 232 229 230 232 234 236 238 241 245 249 253 257 261 264 265 265 267 269 272 273 274 274 271 268 266 264 260 257 258 260 260 257 254 252 250 250 251 253 253 253 254 255 255 255 254 252 250 248 247 246 245 243 239 236 233 231 229 229 229 230 232 235 238
19 23 23 23 22 20 20 19 18 14 5 350 331 312 299 297 305 327 337 335 323 311 263 241 235 236 237 238 239 240 243 246 249 252 255 258 260 263 265 267 270 271 270 265 262 261 261 258 255 254 253 253 253 253 253 251 249 248 249 251 250 249 250 250 250 251 250 247 244 243 242 241 240 239 238 236 234 233 232 233 234 235 236 239 241
357 2 5 6 8 9 9 10 9 9 7 2 354 338 318 299 287 284 285 287 281 277 264 250 238 237 238 239 241 243 245 246 248 249 250 252 255 258 258 260 261 261 259 257 258 258 257 255 255 255 252 251 251 251 252 253 251 248 246 247 248 248 248 248 246 246 245 243 241 240 239 239 238 237 237 237 236 236 236 238 239 240 240 241 243
334 335 339 341 344 348 351 353 356 358 358 358 356 352 343 327 308 295 288 285 284 281 275 268 257 249 243 239 239 242 246 249 250 251 251 252 253 252 250 249 248 250 251 253 256 258 258 257 255 253 251 251 251 251 252 254 254 252 248 247 248 249 248 247 245 244 243 242 242 240 239 239 239 239 238 239 239 239 240 242 243 243 243 244 245
324 320 319 321 322 326 330 332 335 339 343 345 346 347 345 341 331 317 304 294 288 285 282 281 276 268 261 253 246 243 244 247 249 251 253 253 253 250 247 246 246 247 248 250 253 255 256 256 255 252 251 251 251 251 252 253 254 254 253 251 250 251 251 250 248 247 246 246 245 243 242 242 242 242 241 241 241 241 241 242 242 244 245 246 247
320 315 312 311 311 313 316 318 319 320 322 326 329 332 333 334 333 329 321 310 299 290 284 282 281 279 275 270 262 255 251 249 249 248 248 250 252 251 250 250 249 248 248 247 248 249 250 251 252 252 252 251 250 250 252 253 253 253 254 255 254 254 254 253 252 251 252 252 251 249 247 247 247 246 246 245 245 244 244 243 244 245 246 248 249
323 318 313 310 309 310 311 311 311 311 311 312 313 314 316 318 320 321 320 317 311 302 292 284 279 277 276 275 272 267 261 258 256 252 249 248 248 249 251 253 252 251 249 247 246 247 247 247 249 251 253 252 251 250 250 252 253 254 255 255 256 256 255 255 254 254 255 255 255 254 253 252 252 252 251 251 250 249 248 248 248 248 248 249 250
335 325 319 315 315 314 313 311 309 308 306 306 306 305 305 305 305 307 308 308 308 306 303 296 287 280 275 272 271 270 267 264 261 259 256 253 251 249 249 251 252 252 251 249 247 248 249 248 248 251 252 252 253 251 250 250 251 253 254 255 256 257 257 256 255 254 255 256 256 257 256 256 255 255 254 254 254 253 252 252 251 251 251 251 251
349 338 326 320 318 318 317 315 312 310 307 305 303 301 300 299 298 297 297 298 298 299 300 299 296 290 283 276 271 268 266 264 263 262 260 258 257 255 254 253 254 254 254 253 251 250 250 250 251 252 252 252 253 252 252 251 251 252 252 254 255 256 257 257 257 255 254 254 255 256 256 257 256 256 256 256 256 255 255 254 253 253 253 253 252
351 348 336 325 320 319 318 316 314 312 309 306 303 299 297 295 295 293 292 292 291 292 292 293 293 292 290 285 279 275 270 266 263 262 262 262 261 261 260 259 258 258 258 257 256 253 253 252 252 253 252 252 252 252 252 253 253 252 253 254 255 255 256 257 257 257 255 253 252 253 253 254 255 255 254 255 255 255 255 255 255 255 255 254 254
340 344 340 331 323 319 317 316 315 312 309 306 302 298 293 291 290 289 288 287 287 287 286 286 286 287 287 286 285 284 281 276 271 267 265 265 265 265 264 263 262 261 260 259 258 257 256 255 255 255 255 254 253 253 253 253 253 254 254 255 256 256 256 257 257 257 257 255 253 252 252 252 253 254 254 253 253 254 254 254 255 256 257 257 257
321 328 331 329 325 318 314 312 312 310 306 301 297 293 290 288 286 284 282 282 282 282 282 281 281 281 281 281 282 284 285 284 281 277 273 270 269 268 267 266 265 264 263 262 261 261 260 259 259 259 259 259 258 257 256 255 255 255 255 255 255 256 256 257 257 258 258 258 257 255 253 252 252 253 254 253 252 252 253 253 253 254 255 257 258
311 315 316 317 317 314 309 306 303 301 297 293 290 288 287 285 283 281 279 278 277 276 276 276 276 277 277 277 277 278 280 282 282 282 281 278 275 273 270 267 266 265 265 265 265 265 264 263 263 263 263 263 262 262 261 260 259 258 257 257 256 256 257 257 258 258 259 259 259 258 256 255 253 253 253 254 253 252 253 254 253 252 253 254 256
300 303 305 305 305 304 302 299 297 295 293 290 288 286 284 282 279 277 276 275 274 273 271 271 271 272 273 273 274 274 275 276 277 278 279 279 279 277 275 272 269 268 267 266 266 267 267 266 266 266 266 266 266 265 265 264 263 262 261 260 260 259 259 259 259 259 259 260 260 260 259 257 256 255 254 254 254 252 251 252 253 252 251 252 254
290 290 293 295 296 297 296 295 294 294 293 293 292 291 289 286 283 280 276 274 273 272 270 269 269 268 268 269 270 272 273 273 274 275 275 275 275 276 275 275 274 272 271 270 269 268 268 267 267 267 267 267 267 267 267 267 266 266 265 265 264 264 263 263 263 262 261 261 261 260 260 259 258 257 256 255 255 254 252 251 252 252 251 250 251
293 288 286 287 290 291 291 292 293 293 293 294 294 294 294 292 291 289 286 283 280 276 274 272 270 269 268 268 268 269 269 270 272 273 273 273 272 272 273 274 274 274 273 272 271 270 269 268 268 267 267 266 266 266 266 267 267 267 268 268 268 267 267 266 266 265 265 264 263 262 262 261 260 259 258 257 257 256 255 252 251 251 251 250 250
298 294 290 288 289 290 290 291 292 293 295 295 296 296 296 295 294 293 293 292 290 288 284 280 277 274 272 270 269 269 269 269 270 271 272 272 271 271 271 272 273 274 274 273 272 271 269 268 268 269 268 267 267 267 267 266 266 266 267 268 268 269 269 268 268 267 267 266 266 265 264 263 262 262 261 260 259 258 257 255 253 251 251 251 250
297 297 294 292 291 291 290 291 291 292 293 295 295 296 296 296 295 294 293 292 292 292 291 289 288 285 281 278 275 272 271 271 270 269 270 270 271 271 270 269 270 271 273 273 273 271 270 268 268 269 269 269 269 269 269 268 268 267 267 267 267 267 268 268 268 268 268 268 267 267 266 265 264 264 263 262 261 261 260 259 257 255 253 252 252
295 294 292 290 289 289 289 289 289 290 291 291 292 293 294 294 295 294 293 292 291 290 290 291 291 291 290 287 284 280 276 273 271 270 270 270 271 271 270 269 268 267 268 270 270 270 270 268 267 267 268 269 269 269 269 269 269 269 269 268 267 267 266 266 266 267 268 268 268 268 268 267 266 265 265 264 263 263 262 261 261 259 258 256 255
295 293 291 288 287 286 286 285 285 287 287 288 288 289 290 291 291 291 291 291 290 289 289 289 289 289 289 289 288 286 283 280 277 275 274 274 273 272 272 270 269 267 266 266 267 269 269 268 267 266 266 266 267 267 267 268 268 269 269 269 269 268 268 267 267 266 266 267 267 268 268 268 268 268 267 266 265 264 263 263 262 262 261 260 259
299 297 295 292 289 288 287 285 284 284 284 284 285 286 286 287 287 288 288 288 288 288 289 288 288 287 287 287 286 286 286 284 283 282 281 279 277 275 274 272 270 268 267 266 266 267 268 269 268 266 265 265 265 266 266 266 267 267 268 268 268 269 269 269 269 268 268 268 267 267 267 268 268 268 268 268 268 267 266 265 264 263 262 262 261
304 301 299 296 294 292 291 289 288 287 285 284 283 283 283 284 284 284 284 284 285 285 286 286 286 286 286 285 284 284 284 284 284 284 283 282 280 278 276 274 271 269 268 267 266 266 268 269 269 268 266 265 265 265 265 265 265 266 266 266 267 267 268 268 269 269 269 269 269 268 268 267 267 267 267 267 267 267 267 266 266 265 264 263 262
304 303 300 297 295 293 291 290 290 290 289 288 286 284 282 281 282 282 282 281 282 282 283 283 283 283 283 284 284 283 283 283 283 283 283 281 281 279 277 275 273 271 270 269 268 268 268 268 268 268 268 267 266 266 265 265 265 265 265 266 266 266 267 267 267 268 268 268 268 268 268 268 268 267 267 267 266 266 266 266 265 265 264 264 264
300 301 301 299 295 292 289 288 288 288 288 288 288 286 284 282 281 280 280 280 280 280 281 281 281 281 281 281 281 282 282 283 283 282 281 280 280 279 278 277 276 274 273 272 270 269 268 268 268 269 269 269 267 266 266 267 266 266 266 266 266 267 267 267 267 268 268 268 268 267 268 268 268 268 268 267 267 266 266 265 265 264 264 263 263
297 298 299 299 299 297 295 293 291 289 288 287 286 286 285 284 282 281 279 278 278 278 279 279 280 281 280 279 278 278 279 280 280 280 279 277 277 277 277 278 278 277 276 275 273 271 270 269 268 268 268 269 268 267 267 267 268 268 268 267 267 267 268 268 268 269 269 269 268 268 268 268 268 268 268 268 268 268 267 267 266 265 264 263 262
299 298 298 298 299 299 299 298 297 295 293 291 289 287 285 284 283 282 280 279 277 277 277 277 278 279 279 278 277 276 276 276 276 276 276 275 274 275 275 277 277 277 277 276 275 273 271 270 268 266 266 267 266 266 266 266 267 268 268 268 268 268 268 268 269 269 269 269 270 270 269 269 269 269 269 269 269 269 269 269 268 267 266 265 264
303 302 302 302 301 301 300 299 298 297 295 294 293 291 288 286 284 282 282 281 279 278 276 276 277 276 276 277 277 276 277 277 276 274 273 272 272 272 273 275 275 276 276 276 276 275 273 272 270 268 266 265 264 263 264 264 264 265 267 268 268 269 269 269 269 269 269 270 270 270 270 271 270 270 270 270 270 270 270 269 269 269 268 267 266
307 307 307 307 306 305 303 301 299 297 295 293 291 290 289 287 285 283 282 281 280 280 279 278 277 276 275 275 275 275 276 277 276 276 274 272 271 270 271 272 273 274 274 274 274 274 274 273 272 271 268 267 266 264 264 264 263 263 264 265 266 267 268 269 270 271 271 271 271 270 270 270 270 270 270 270 270 270 270 269 269 268 268 268 267
310 309 308 307 306 306 304 302 300 298 296 294 292 290 289 287 285 283 282 281 280 280 280 279 278 277 276 275 274 274 275 275 275 275 276 275 273 271 270 270 271 271 272 272 272 272 271 271 270 270 269 268 268 267 265 264 264 263 262 262 262 263 263 265 266 268 269 270 270 270 270 270 270 270 270 269 269 269 269 269 268 268 267 267 267
307 306 305 305 304 304 304 302 301 299 298 296 295 293 292 291 289 287 285 283 282 281 280 279 278 278 277 276 275 274 274 274 274 274 275 275 275 273 272 272 271 270 271 271 271 271 271 270 269 269 269 268 268 268 266 265 264 263 262 261 261 261 261 261 261 263 264 266 267 268 268 269 269 269 269 268 268 268 268 268 267 267 267 266 266
302 302 302 302 302 302 303 302 301 300 298 297 295 294 292 292 290 289 288 286 284 283 282 281 280 279 278 277 276 275 274 274 275 275 274 274 274 273 273 272 271 270 270 270 270 271 271 271 270 269 269 268 268 269 268 267 266 265 263 262 262 262 262 261 261 261 261 262 263 265 265 266 266 267 267 267 267 267 267 267 267 267 266 266 265
298 298 298 298 299 300 300 300 299 298 296 295 293 292 291 289 288 287 286 285 284 283 282 282 281 280 278 277 276 276 275 274 274 274 274 274 274 273 272 271 271 270 270 270 269 269 269 269 269 269 268 268 267 268 268 268 267 266 265 264 263 263 263 262 262 261 261 262 262 263 264 264 265 265 266 267 267 267 267 267 267 267 266 266 265
294 294 294 295 296 297 298 298 297 295 294 292 290 289 288 287 285 284 283 282 281 281 281 281 280 280 279 278 277 276 276 275 274 273 273 273 273 273 273 272 271 270 270 270 269 268 267 267 267 267 267 267 267 266 266 266 266 267 267 266 265 264 263 262 262 262 261 261 261 262 263 263 264 264 265 265 266 267 267 267 266 266 266 266 266
292 291 291 291 293 295 296 297 296 295 293 290 288 286 285 284 283 282 281 281 280 280 279 280 280 280 279 279 278 277 276 276 275 274 273 272 272 272 272 271 271 270 269 269 269 268 268 268 267 267 267 267 267 266 266 267 267 266 266 266 265 264 263 262 262 262 262 262 262 262 262 262 262 262 263 263 264 265 266 266 266 266 266 266 266
292 291 290 290 291 293 295 296 296 295 293 290 288 286 284 282 281 280 279 279 279 279 279 279 279 280 280 280 280 279 278 277 277 276 275 274 273 271 271 270 270 269 268 268 267 267 267 267 268 267 267 267 267 266 267 267 267 266 266 266 265 264 264 263 263 263 263 264 264 264 263 263 263 262 262 262 262 262 263 264 265 265 265 265 266
294 293 291 289 289 291 292 294 294 293 291 289 287 285 283 282 280 279 278 278 278 278 278 279 280 281 281 281 281 280 279 278 277 276 276 275 274 273 271 270 269 269 268 268 267 266 266 266 266 267 267 267 267 267 266 266 266 266 266 266 266 266 265 264 264 264 264 265 265 265 265 265 265 264 263 262 262 262 262 262 263 263 264 264 265
294 293 291 289 288 289 291 292 291 290 289 288 286 284 282 280 279 278 277 277 277 278 278 279 280 281 282 282 282 281 280 278 277 275 275 274 274 273 272 270 269 268 267 267 267 266 265 265 264 265 265 265 266 266 266 266 266 266 265 265 266 267 267 266 265 265 265 266 266 266 266 266 266 266 265 265 264 263 262 262 262 262 262 263 263
293 292 290 288 287 288 289 290 289 288 287 286 284 282 281 279 278 277 277 276 277 278 279 279 280 282 282 283 283 282 281 279 277 275 273 272 272 271 271 270 269 267 266 266 266 266 266 265 264 264 264 264 264 264 264 264 264 265 265 265 265 266 267 267 268 268 267 267 267 266 266 266 266 266 267 267 266 266 265 264 263 262 262 262 263
291 290 289 288 287 287 287 288 288 287 286 284 282 280 279 278 277 276 276 276 276 277 278 279 280 281 282 283 283 282 281 280 278 276 274 271 270 269 268 268 267 267 265 264 264 263 264 264 263 263 263 263 263 263 264 263 263 263 263 263 263 263 264 265 266 268 269 269 269 268 267 266 266 265 266 266 267 267 267 266 265 263 263 262 262
289 288 287 286 285 285 285 286 286 286 285 283 281 279 278 277 276 276 275 275 276 276 277 279 280 281 282 282 281 281 280 279 278 276 274 272 270 268 267 266 265 265 265 264 263 262 262 262 262 262 262 262 262 262 262 262 262 262 262 262 262 261 261 262 262 264 266 268 270 270 269 269 268 267 266 265 265 266 266 267 267 266 265 264 263
288 287 286 285 283 283 283 284 284 284 283 282 281 280 278 277 276 276 276 276 276 277 277 279 280 281 281 280 280 279 279 278 277 275 273 271 270 269 268 267 265 265 264 264 264 264 263 263 263 262 262 262 263 263 263 263 262 262 261 262 262 262 261 261 260 260 261 263 266 268 269 269 270 270 269 267 266 265 265 266 266 267 267 266 265
287 286 285 284 282 281 281 282 282 282 282 281 280 279 278 277 276 276 276 276 276 277 278 279 280 280 280 279 278 278 277 277 276 275 273 271 270 269 268 268 267 266 266 265 265 265 265 265 265 265 265 265 265 265 265 265 265 264 263 263 262 262 262 262 262 261 259 259 261 264 267 268 269 269 270 270 269 268 267 266 265 265 266 266 266
286 285 284 283 282 281 281 281 281 281 281 281 280 279 278 277 276 276 276 276 276 277 278 279 279 280 280 279 278 277 275 275 274 274 274 273 271 270 269 268 268 268 268 268 268 268 267 267 267 267 267 267 268 268 268 267 267 267 267 267 266 266 265 265 264 263 262 260 259 260 262 265 267 268 269 269 270 270 269 268 267 266 265 265 265
285 283 283 282 282 281 282 282 282 282 282 281 281 280 279 278 278 278 278 279 279 280 280 280 281 281 281 280 279 277 275 273 272 272 273 273 273 272 271 271 270 269 269 269 269 269 270 270 270 270 270 270 270 270 270 270 270 270 270 270 270 270 270 269 268 267 266 265 262 261 261 261 263 266 268 268 268 269 269 269 268 267 266 266 265
284 283 282 282 282 282 283 283 283 283 282 281 281 281 281 281 281 281 282 282 283 283 283 283 282 282 281 281 280 278 275 273 272 271 271 272 272 273 273 273 273 272 272 272 272 271 272 272 272 273 273 273 273 273 273 273 273 273 272 272 272 272 272 272 272 272 271 270 268 267 265 264 262 262 265 266 267 267 267 268 268 268 267 266 266
Height
5880 5880 5880 5880 5881 5881 5881 5881 5882 5882 5882 5883 5883 5884 5884 5884 5885 5885 5886 5887 5887 5888 5889 5889 5890 5890 5890 5891 5891 5891 5892 5891 5891 5891 5892 5892 5893 5893 5893 5894 5894 5894 5895 5895 5895 5895 5896 5896 5896 5896 5896 5897 5897 5898 5898 5898 5899 5899 5900 5900 5901 5902 5902 5902 5903 5903 5903 5904 5904 5904 5904 5904 5905 5905 5905 5905 5905 5905 5906 5906 5906 5906 5906 5906 5906
5880 5881 5881 5881 5881 5881 5882 5882 5882 5882 5882 5882 5883 5883 5884 5884 5884 5885 5885 5886 5887 5888 5888 5889 5889 5889 5890 5890 5891 5891 5892 5892 5891 5891 5892 5892 5892 5893 5893 5893 5893 5894 5894 5894 5894 5894 5895 5895 5895 5895 5895 5896 5897 5897 5897 5897 5898 5898 5898 5899 5900 5900 5901 5901 5901 5902 5902 5903 5903 5903 5903 5903 5904 5904 5904 5904 5904 5904 5905 5905 5905 5905 5905 5905 5905
5881 5881 5881 5881 5881 5882 5882 5882 5883 5883 5883 5883 5883 5883 5883 5883 5884 5884 5885 5885 5886 5887 5887 5888 5888 5888 5889 5889 5890 5890 5891 5891 5891 5891 5891 5892 5892 5892 5892 5892 5893 5893 5893 5893 5893 5893 5894 5894 5894 5895 5895 5895 5896 5896 5896 5896 5896 5897 5897 5898 5899 5899 5899 5900 5900 5901 5901 5902 5902 5902 5902 5902 5903 5903 5903 5903 5904 5904 5904 5904 5904 5904 5904 5904 5904
5882 5882 5882 5882 5882 5882 5882 5882 5883 5883 5883 5883 5883 5883 5883 5883 5883 5884 5884 5884 5885 5885 5886 5887 5887 5887 5888 5888 5889 5889 5890 5890 5890 5890 5890 5891 5891 5892 5892 5892 5892 5892 5892 5892 5892 5893 5893 5893 5894 5894 5894 5894 5895 5895 5895 5895 5896 5896 5896 5897 5897 5898 5898 5899 5899 5899 5900 5900 5900 5900 5901 5901 5901 5902 5902 5902 5902 5903 5903 5903 5903 5903 5903 5903 5903
5882 5882 5882 5882 5882 5882 5882 5882 5882 5883 5883 5883 5883 5883 5884 5884 5884 5884 5884 5884 5884 5884 5885 5885 5886 5886 5887 5887 5888 5888 5889 5889 5889 5889 5889 5890 5890 5891 5891 5891 5891 5891 5891 5892 5892 5892 5892 5893 5893 5893 5893 5893 5893 5894 5894 5894 5895 5895 5895 5896 5896 5896 5897 5897 5897 5898 5898 5898 5899 5899 5899 5900 5900 5900 5901 5901 5901 5902 5902 5902 5902 5902 5902 5902 5902
5883 5883 5883 5882 5882 5882 5882 5882 5882 5882 5883 5883 5883 5883 5883 5884 5884 5884 5884 5884 5884 5884 5884 5884 5885 5885 5885 5886 5886 5887 5887 5888 5888 5888 5889 5889 5889 5889 5890 5890 5890 5890 5891 5891 5891 5892 5892 5892 5892 5892 5892 5892 5892 5892 5893 5893 5893 5894 5894 5894 5895 5895 5895 5896 5896 5896 5896 5897 5897 5898 5898 5898 5899 5899 5899 5899 5900 5900 5900 5901 5901 5901 5901 5901 5901
5884 5883 5883 5883 5883 5883 5883 5883 5882 5882 5883 5883 5883 5883 5883 5883 5883 5884 5884 5884 5884 5884 5884 5884 5884 5884 5884 5885 5885 5886 5886 5886 5887 5887 5888 5888 5888 5888 5889 5889 5889 5889 5890 5890 5890 5890 5890 5891 5891 5891 5891 5891 5891 5891 5891 5891 5892 5892 5893 5893 5893 5893 5894 5894 5894 5894 5895 5895 5896 5896 5897 5897 5897 5897 5898 5898 5898 5898 5899 5899 5899 5899 5899 5900 5900
5884 5884 5884 5883 5883 5883 5883 5883 5883 5883 5883 5883 5883 5883 5883 5883 5883 5883 5883 5883 5883 5883 5883 5883 5883 5883 5884 5884 5884 5885 5885 5885 5885 5886 5886 5887 5887 5887 5888 5888 5888 5889 5889 5889 5889 5889 5889 5889 5889 5889 5890 5890 5890 5890 5890 5890 5891 5891 5891 5891 5892 5892 5892 5892 5893 5893 5893 5894 5894 5895 5895 5895 5896 5896 5896 5896 5896 5896 5897 5897 5897 5897 5898 5898 5898
5884 5884 5884 5884 5883 5883 5883 5883 5883 5883 5883 5883 5883 5883 5883 5883 5883 5883 5883 5883 5883 5883 5883 5883 5883 5883 5883 5883 5884 5884 5884 5884 5884 5885 5885 5885 5886 5886 5886 5887 5887 5887 5887 5887 5887 5888 5888 5888 5888 5889 5889 5889 5889 5889 5889 5889 5889 5890 5890 5890 5890 5891 5891 5891 5891 5891 5892 5892 5892 5893 5893 5893 5894 5894 5894 5894 5895 5895 5895 5896 5896 5896 5896 5896 5896
5884 5884 5884 5884 5884 5883 5883 5883 5883 5883 5883 5883 5883 5883 5883 5883 5883 5883 5883 5883 5883 5882 5882 5882 5882 5882 5882 5882 5883 5883 5883 5883 5884 5884 5884 5884 5885 5885 5885 5885 5885 5886 5886 5886 5886 5887 5887 5887 5888 5888 5888 5888 5888 5888 5888 5888 5888 5889 5889 5889 5889 5890 5890 5890 5890 5890 5890 5891 5891 5891 5891 5892 5892 5892 5893 5893 5893 5894 5894 5894 5894 5894 5894 5894 5894
5884 5884 5884 5884 5884 5884 5883 5883 5883 5883 5883 5883 5883 5883 5883 5882 5882 5882 5882 5882 5882 5882 5882 5882 5882 5882 5882 5882 5882 5882 5882 5882 5883 5883 5883 5884 5884 5884 5884 5884 5884 5884 5885 5885 5885 5886 5886 5886 5887 5887 5887 5887 5887 5887 5887 5887 5887 5887 5888 5888 5888 5888 5889 5889 5889 5889 5889 5889 5889 5890 5890 5890 5890 5891 5891 5891 5892 5892 5892 5892 5892 5892 5892 5892 5893
5883 5883 5883 5883 5883 5883 5883 5883 5883 5883 5883 5883 5882 5882 5882 5882 5882 5882 5882 5882 5882 5882 5882 5882 5882 5882 5882 5882 5882 5882 5882 5882 5882 5882 5882 5882 5883 5883 5883 5883 5883 5883 5883 5884 5884 5884 5884 5885 5885 5885 5886 5886 5886 5886 5886 5886 5886 5886 5886 5887 5887 5887 5888 5888 5888 5888 5888 5888 5888 5888 5888 5889 5889 5889 5889 5890 5890 5890 5890 5890 5891 5891 5891 5891 5891
5883 5883 5883 5883 5883 5883 5883 5883 5883 5883 5883 5882 5882 5882 5882 5882 5882 5881 5881 5881 5881 5881 5881 5881 5881 5881 5881 5881 5881 5882 5882 5881 5881 5881 5881 5881 5882 5882 5882 5882 5882 5882 5882 5882 5882 5883 5883 5883 5883 5883 5884 5884 5885 5885 5885 5885 5885 5885 5885 5885 5885 5885 5886 5886 5886 5886 5886 5887 5887 5887 5887 5887 5887 5887 5888 5888 5888 5888 5888 5888 5889 5889 5889 5889 5889
5882 5882 5882 5882 5882 5882 5882 5882 5882 5882 5882 5882 5882 5882 5881 5881 5881 5881 5881 5881 5881 5880 5880 5880 5880 5880 5880 5880 5880 5880 5881 5881 5881 5880 5880 5881 5880 5881 5881 5881 5881 5881 5881 5881 5881 5881 5881 5882 5881 5882 5882 5882 5883 5883 5883 5883 5883 5883 5883 5883 5883 5884 5884 5884 5885 5885 5885 5885 5885 5885 5885 5885 5886 5886 5886 5886 5886 5886 5886 5887 5887 5887 5887 5887 5887
5882 5881 5881 5881 5881 5881 5882 5882 5882 5882 5882 5882 5881 5881 5881 5881 5881 5880 5880 5880 5880 5880 5880 5880 5880 5879 5879 5879 5879 5879 5879 5879 5879 5879 5879 5879 5879 5880 5880 5880 5880 5880 5880 5880 5880 5880 5880 5880 5880 5880 5880 5880 5881 5881 5881 5881 5882 5882 5882 5882 5882 5882 5882 5882 5882 5883 5883 5883 5883 5883 5883 5884 5884 5884 5884 5884 5884 5884 5885 5885 5885 5885 5885 5885 5885
5881 5881 5881 5880 5880 5880 5880 5880 5880 5880 5881 5881 5881 5880 5880 5880 5880 5880 5880 5880 5879 5879 5879 5879 5879 5879 5879 5878 5878 5878 5878 5878 5878 5878 5878 5878 5878 5878 5878 5878 5878 5878 5878 5878 5878 5878 5878 5878 5878 5878 5878 5879 5879 5879 5879 5880 5880 5880 5880 5880 5880 5880 5880 5880 5880 5881 5881 5881 5881 5881 5881 5881 5881 5882 5882 5882 5882 5882 5882 5883 5883 5883 5883 5883 5883
5880 5880 5880 5880 5880 5879 5879 5879 5879 5879 5879 5879 5879 5879 5879 5879 5879 5879 5879 5879 5879 5879 5879 5878 5878 5878 5878 5878 5877 5877 5877 5877 5877 5877 5877 5877 5877 5877 5877 5877 5877 5876 5876 5876 5876 5877 5877 5877 5877 5877 5877 5877 5877 5877 5877 5878 5878 5878 5879 5879 5879 5879 5879 5879 5879 5879 5879 5879 5879 5880 5880 5880 5879 5879 5879 5880 5880 5880 5880 5880 5880 5880 5880 5880 5881
5879 5879 5879 5879 5879 5879 5879 5878 5878 5878 5878 5878 5878 5878 5878 5878 5878 5878 5878 5878 5878 5878 5878 5877 5877 5877 5877 5877 5877 5876 5876 5876 5876 5876 5876 5876 5876 5876 5876 5875 5875 5875 5875 5875 5875 5875 5875 5875 5875 5875 5875 5875 5875 5876 5876 5876 5876 5876 5877 5877 5877 5877 5877 5877 5877 5877 5877 5877 5877 5878 5878 5878 5878 5877 5877 5877 5878 5878 5878 5878 5878 5878 5878 5878 5878
5878 5878 5878 5878 5878 5878 5878 5878 5878 5877 5877 5877 5877 5876 5876 5876 5876 5876 5876 5876 5876 5876 5876 5876 5876 5876 5876 5876 5875 5875 5875 5875 5875 5875 5875 5874 5874 5874 5874 5874 5873 5873 5873 5873 5874 5874 5874 5874 5874 5874 5874 5874 5874 5874 5874 5874 5875 5875 5875 5875 5875 5875 5875 5875 5875 5875 5875 5875 5875 5875 5875 5875 5875 5875 5875 5875 5875 5876 5876 5875 5876 5876 5876 5876 5876
5877 5877 5877 5877 5877 5877 5877 5877 5877 5876 5876 5876 5876 5876 5875 5875 5875 5874 5874 5874 5874 5874 5874 5874 5874 5874 5874 5874 5874 5874 5873 5873 5873 5873 5873 5873 5873 5873 5872 5872 5872 5871 5872 5872 5872 5872 5872 5873 5872 5872 5872 5872 5873 5873 5873 5873 5873 5873 5873 5873 5873 5873 5873 5873 5873 5873 5873 5873 5873 5873 5873 5873 5873 5873 5873 5873 5873 5873 5873 5873 5873 5874 5874 5874 5874
5876 5876 5876 5875 5875 5875 5875 5875 5875 5875 5875 5875 5875 5875 5874 5874 5874 5873 5873 5873 5872 5872 5872 5872 5872 5872 5872 5872 5872 5872 5872 5872 5871 5871 5871 5871 5871 5871 5870 5870 5870 5870 5870 5870 5870 5870 5870 5870 5870 5870 5870 5870 5871 5871 5871 5871 5871 5871 5871 5871 5871 5871 5871 5871 5871 5871 5871 5871 5871 5871 5871 5871 5871 5871 5871 5871 5871 5871 5871 5871 5871 5871 5871 5872 5872
5875 5875 5875 5874 5874 5874 5874 5874 5874 5874 5874 5873 5873 5873 5873 5873 5873 5873 5872 5872 5871 5871 5871 5870 5870 5870 5870 5870 5870 5870 5870 5870 5869 5869 5869 5869 5869 5869 5868 5868 5868 5868 5868 5868 5868 5868 5868 5868 5868 5868 5868 5868 5868 5868 5868 5868 5868 5868 5868 5869 5869 5869 5869 5869 5869 5869 5869 5869 5869 5869 5869 5869 5868 5868 5868 5868 5868 5868 5868 5869 5869 5869 5869 5869 5869
5874 5874 5874 5873 5873 5873 5873 5873 5872 5872 5872 5872 5872 5872 5872 5871 5871 5871 5871 5871 5870 5870 5870 5869 5869 5868 5868 5868 5868 5868 5867 5867 5867 5867 5866 5866 5866 5866 5866 5866 5866 5866 5866 5866 5866 5866 5866 5866 5866 5865 5865 5865 5865 5865 5865 5865 5865 5865 5865 5866 5866 5866 5866 5866 5867 5867 5867 5867 5867 5867 5867 5867 5866 5866 5866 5866 5866 5866 5866 5866 5866 5866 5866 5866 5866
5872 5872 5872 5872 5872 5872 5871 5871 5871 5871 5871 5870 5870 5870 5870 5870 5870 5869 5869 5869 5868 5868 5868 5868 5867 5867 5867 5866 5866 5865 5865 5865 5865 5865 5864 5864 5864 5864 5864 5864 5864 5863 5863 5863 5863 5863 5863 5863 5863 5863 5863 5862 5862 5862 5862 5862 5862 5862 5862 5862 5862 5863 5863 5863 5863 5863 5863 5864 5864 5864 5864 5864 5864 5864 5864 5864 5864 5863 5863 5863 5863 5863 5863 5863 5864
5870 5870 5870 5870 5870 5870 5870 5869 5869 5869 5869 5869 5868 5868 5868 5868 5868 5867 5867 5867 5866 5866 5865 5865 5865 5865 5865 5864 5864 5863 5863 5862 5862 5862 5862 5862 5861 5861 5861 5861 5861 5861 5860 5860 5860 5859 5860 5860 5860 5860 5860 5860 5859 5860 5860 5859 5859 5859 5859 5859 5859 5859 5859 5859 5859 5859 5860 5860 5860 5861 5861 5861 5861 5861 5861 5861 5861 5861 5861 5861 5861 5861 5861 5861 5861
5868 5867 5867 5867 5867 5867 5867 5867 5867 5866 5866 5866 5866 5866 5866 5866 5866 5865 5865 5864 5864 5863 5863 5863 5862 5862 5862 5862 5862 5861 5861 5860 5860 5860 5859 5859 5859 5859 5859 5858 5858 5858 5858 5857 5856 5856 5856 5857 5857 5857 5857 5857 5856 5856 5856 5856 5856 5856 5856 5856 5856 5856 5856 5856 5856 5856 5856 5856 5857 5857 5857 5858 5858 5858 5858 5858 5858 5858 5858 5858 5858 5858 5858 5858 5858
5866 5866 5865 5865 5865 5865 5864 5864 5864 5864 5864 5864 5863 5863 5863 5863 5863 5863 5863 5862 5862 5861 5860 5860 5860 5859 5859 5859 5859 5858 5858 5858 5858 5857 5857 5856 5856 5856 5855 5855 5855 5855 5855 5854 5854 5853 5853 5853 5854 5854 5854 5854 5853 5853 5853 5853 5853 5852 5852 5852 5853 5853 5853 5853 5853 5853 5853 5853 5854 5854 5854 5854 5854 5854 5854 5854 5854 5855 5855 5855 5855 5855 5854 5854 5855
5864 5864 5864 5863 5863 5863 5863 5862 5862 5862 5861 5861 5861 5861 5860 5860 5860 5860 5859 5859 5858 5858 5858 5857 5857 5856 5856 5856 5855 5855 5855 5854 5855 5855 5854 5853 5852 5852 5852 5851 5851 5851 5851 5851 5851 5851 5851 5850 5850 5850 5851 5851 5850 5850 5850 5849 5849 5849 5849 5849 5849 5849 5849 5849 5849 5849 5850 5850 5850 5850 5850 5850 5850 5850 5850 5850 5851 5851 5851 5851 5851 5851 5851 5851 5851
5862 5861 5861 5861 5861 5861 5861 5860 5860 5860 5859 5859 5859 5859 5858 5858 5858 5857 5857 5856 5855 5855 5855 5854 5854 5854 5853 5853 5852 5852 5851 5851 5851 5851 5851 5850 5849 5849 5848 5847 5847 5847 5847 5847 5848 5848 5848 5847 5846 5846 5847 5848 5847 5847 5846 5846 5846 5846 5845 5845 5845 5845 5845 5845 5845 5845 5846 5846 5846 5846 5846 5847 5846 5846 5846 5846 5847 5847 5847 5847 5847 5847 5848 5848 5848
5860 5860 5859 5859 5859 5859 5859 5858 5858 5858 5857 5857 5856 5856 5856 5856 5855 5855 5854 5853 5852 5852 5851 5851 5850 5850 5850 5850 5849 5848 5848 5847 5847 5847 5847 5846 5845 5844 5843 5843 5843 5843 5843 5843 5843 5844 5844 5844 5843 5843 5844 5844 5844 5843 5843 5843 5843 5842 5842 5842 5842 5841 5841 5841 5841 5841 5841 5842 5842 5842 5842 5842 5842 5842 5842 5842 5842 5842 5842 5842 5843 5843 5843 5844 5844
5858 5858 5857 5857 5857 5856 5856 5856 5856 5855 5855 5855 5854 5854 5853 5853 5852 5852 5851 5851 5850 5849 5848 5847 5846 5846 5846 5846 5846 5845 5845 5844 5844 5844 5844 5843 5841 5840 5839 5838 5839 5839 5839 5839 5839 5839 5839 5839 5839 5839 5840 5839 5839 5839 5839 5839 5839 5839 5839 5838 5838 5838 5838 5838 5837 5837 5837 5837 5837 5837 5838 5838 5838 5838 5838 5838 5838 5838 5838 5838 5838 5839 5839 5839 5840
5855 5855 5855 5855 5854 5854 5854 5853 5853 5853 5852 5852 5851 5851 5851 5850 5849 5849 5848 5848 5847 5846 5845 5844 5844 5843 5842 5842 5842 5841 5840 5841 5840 5840 5840 5839 5837 5836 5835 5834 5834 5834 5834 5834 5834 5835 5835 5834 5834 5834 5835 5834 5834 5834 5835 5835 5835 5834 5834 5834 5834 5834 5834 5834 5833 5833 5833 5833 5833 5833 5833 5833 5833 5833 5833 5834 5834 5834 5834 5834 5834 5834 5834 5834 5835
5853 5853 5852 5852 5852 5852 5851 5851 5850 5850 5850 5849 5849 5848 5848 5847 5846 5846 5845 5844 5843 5842 5842 5841 5840 5840 5839 5838 5837 5836 5836 5836 5836 5835 5835 5835 5834 5832 5831 5830 5830 5829 5829 5829 5828 5829 5829 5829 5829 5829 5830 5829 5828 5829 5829 5829 5830 5829 5829 5829 5830 5830 5830 5830 5829 5829 5829 5828 5828 5828 5828 5828 5828 5828 5828 5828 5829 5829 5829 5829 5829 5829 5829 5829 5830
5850 5850 5850 5849 5849 5849 5848 5848 5848 5847 5847 5846 5846 5845 5845 5844 5843 5843 5842 5841 5840 5839 5838 5837 5837 5836 5835 5834 5833 5832 5832 5832 5831 5830 5830 5830 5829 5829 5827 5826 5826 5825 5825 5824 5823 5824 5824 5824 5824 5824 5825 5824 5823 5824 5824 5824 5824 5824 5824 5824 5824 5824 5825 5825 5825 5825 5824 5824 5824 5823 5823 5823 5823 5823 5823 5823 5823 5823 5823 5823 5824 5823 5824 5824 5824
5848 5847 5847 5847 5846 5846 5846 5845 5845 5844 5844 5843 5843 5842 5842 5841 5840 5839 5838 5837 5836 5835 5834 5834 5832 5831 5831 5830 5829 5828 5828 5827 5826 5826 5825 5825 5824 5824 5823 5822 5822 5821 5820 5819 5819 5819 5819 5819 5818 5818 5819 5819 5819 5820 5820 5819 5819 5819 5819 5818 5818 5818 5818 5819 5819 5819 5819 5819 5819 5819 5819 5818 5818 5818 5818 5818 5818 5818 5818 5818 5818 5818 5818 5819 5819
5845 5844 5844 5844 5844 5843 5843 5842 5842 5841 5841 5840 5839 5839 5838 5838 5837 5836 5835 5834 5833 5832 5831 5830 5829 5827 5827 5826 5825 5824 5823 5822 5821 5821 5820 5820 5819 5818 5817 5817 5817 5815 5814 5814 5813 5813 5813 5813 5813 5813 5813 5813 5813 5814 5815 5814 5814 5814 5813 5813 5812 5812 5812 5812 5813 5813 5813 5813 5813 5813 5813 5813 5813 5813 5812 5812 5812 5812 5812 5812 5812 5813 5813 5813 5814
5841 5841 5841 5841 5841 5840 5840 5839 5839 5838 5837 5836 5835 5835 5834 5834 5833 5832 5832 5830 5829 5828 5827 5826 5825 5824 5823 5822 5820 5819 5818 5817 5816 5815 5814 5814 5814 5813 5813 5812 5812 5810 5809 5809 5808 5808 5807 5807 5807 5807 5807 5807 5807 5808 5809 5809 5809 5808 5808 5808 5808 5807 5807 5807 5807 5807 5807 5806 5806 5807 5807 5807 5807 5807 5807 5807 5807 5807 5807 5807 5807 5807 5807 5808 5808
5838 5838 5837 5837 5837 5837 5836 5836 5835 5834 5833 5832 5832 5831 5830 5829 5829 5828 5828 5827 5826 5825 5823 5822 5821 5820 5818 5817 5816 5815 5814 5813 5811 5810 5809 5808 5808 5807 5807 5807 5806 5805 5804 5804 5803 5802 5802 5801 5801 5801 5801 5801 5801 5802 5803 5803 5803 5803 5802 5803 5803 5802 5802 5802 5802 5802 5802 5801 5801 5801 5801 5801 5801 5801 5801 5801 5801 5801 5801 5801 5801 5801 5802 5802 5802
5835 5834 5834 5833 5833 5833 5832 5832 5831 5831 5830 5829 5828 5827 5826 5825 5824 5823 5823 5822 5821 5820 5819 5818 5817 5815 5814 5813 5812 5810 5809 5808 5807 5806 5804 5803 5803 5802 5801 5801 5800 5800 5799 5799 5798 5797 5796 5795 5795 5795 5794 5794 5795 5796 5796 5796 5797 5796 5796 5797 5797 5797 5797 5796 5796 5796 5796 5796 5795 5795 5795 5795 5795 5795 5795 5795 5795 5795 5795 5795 5795 5796 5796 5796 5796
5832 5831 5830 5829 5829 5829 5828 5828 5827 5827 5826 5825 5824 5823 5822 5821 5820 5819 5818 5817 5816 5815 5814 5813 5812 5811 5809 5808 5807 5806 5805 5803 5802 5801 5800 5799 5798 5797 5796 5795 5794 5794 5793 5793 5793 5792 5791 5790 5789 5789 5788 5788 5789 5789 5790 5790 5790 5790 5790 5790 5790 5791 5791 5791 5791 5791 5791 5791 5790 5790 5789 5788 5788 5788 5789 5789 5789 5789 5789 5789 5789 5790 5790 5790 5790
5828 5827 5826 5825 5824 5824 5824 5823 5823 5823 5822 5821 5820 5819 5817 5816 5815 5814 5813 5812 5811 5810 5809 5808 5807 5805 5804 5803 5802 5800 5799 5798 5797 5795 5794 5793 5792 5791 5790 5789 5788 5787 5787 5787 5786 5786 5785 5784 5783 5783 5782 5782 5782 5783 5784 5784 5784 5784 5784 5783 5783 5783 5784 5784 5784 5785 5785 5785 5785 5784 5784 5783 5782 5782 5782 5782 5782 5782 5782 5783 5783 5783 5783 5784 5784
5824 5823 5822 5821 5820 5819 5819 5819 5818 5818 5817 5816 5815 5814 5813 5812 5810 5809 5808 5807 5806 5804 5803 5802 5801 5800 5799 5798 5796 5795 5794 5792 5791 5790 5789 5787 5786 5785 5784 5783 5782 5782 5781 5780 5780 5779 5779 5778 5777 5776 5776 5775 5775 5776 5777 5777 5777 5777 5778 5777 5776 5776 5777 5777 5777 5777 5778 5778 5778 5778 5778 5778 5777 5777 5776 5776 5775 5775 5775 5776 5776 5777 5777 5777 5778
5819 5819 5818 5817 5816 5815 5814 5814 5814 5813 5812 5812 5811 5809 5808 5807 5805 5804 5803 5802 5800 5799 5798 5796 5795 5794 5793 5792 5791 5790 5788 5787 5786 5785 5783 5782 5781 5780 5779 5778 5777 5776 5775 5774 5774 5773 5772 5772 5770 5770 5769 5768 5768 5768 5769 5769 5770 5769 5770 5770 5769 5769 5769 5769 5770 5769 5770 5771 5771 5771 5771 5771 5771 5771 5771 5770 5769 5769 5769 5769 5769 5770 5770 5771 5771
5815 5814 5813 5812 5811 5810 5809 5809 5808 5808 5807 5806 5805 5804 5803 5802 5800 5799 5798 5796 5795 5794 5792 5791 5790 5788 5787 5786 5785 5783 5782 5781 5780 5779 5778 5777 5776 5775 5774 5773 5772 5771 5770 5769 5768 5767 5767 5766 5765 5763 5763 5762 5761 5761 5761 5762 5762 5762 5762 5762 5763 5763 5762 5762 5762 5761 5762 5763 5763 5763 5764 5764 5764 5764 5764 5764 5763 5763 5762 5762 5762 5763 5763 5764 5764
5810 5809 5808 5807 5806 5805 5804 5803 5802 5802 5801 5800 5799 5798 5797 5796 5795 5794 5792 5791 5789 5788 5786 5785 5784 5783 5781 5780 5779 5777 5776 5775 5774 5773 5772 5771 5770 5769 5768 5767 5766 5765 5764 5763 5762 5762 5761 5760 5759 5758 5757 5756 5755 5754 5754 5754 5754 5754 5754 5754 5755 5755 5754 5755 5755 5754 5754 5754 5754 5755 5755 5756 5756 5757 5757 5757 5756 5756 5756 5756 5756 5756 5756 5757 5757
5805 5804 5803 5802 5800 5799 5798 5797 5797 5796 5795 5794 5793 5792 5791 5790 5789 5787 5786 5785 5783 5782 5781 5779 5778 5777 5775 5774 5772 5771 5770 5768 5767 5766 5765 5764 5763 5762 5761 5760 5760 5759 5758 5757 5756 5755 5754 5753 5753 5752 5750 5749 5748 5747 5747 5746 5746 5746 5746 5746 5746 5747 5747 5747 5748 5748 5747 5746 5746 5746 5747 5747 5748 5748 5749 5749 5749 5749 5750 5750 5750 5749 5749 5749 5750
5800 5799 5798 5797 5795 5794 5793 5792 5791 5790 5789 5788 5787 5786 5785 5783 5782 5780 5779 5778 5776 5775 5774 5773 5771 5770 5768 5767 5765 5764 5763 5761 5760 5759 5758 5757 5756 5755 5754 5753 5752 5751 5751 5750 5749 5748 5747 5746 5745 5744 5743 5742 5741 5740 5739 5738 5738 5738 5737 5738 5738 5738 5739 5739 5739 5741 5741 5741 5739 5737 5738 5739 5739 5740 5740 5741 5741 5742 5742 5743 5743 5743 5743 5743 5742
5794 5793 5792 5791 5790 5788 5787 5786 5785 5784 5783 5782 5781 5780 5778 5776 5775 5773 5772 5771 5769 5768 5766 5765 5764 5763 5761 5760 5758 5757 5755 5754 5753 5751 5750 5749 5748 5747 5746 5745 5744 5743 5742 5741 5741 5740 5739 5738 5737 5736 5735 5734 5733 5732 5731 5730 5729 5729 5728 5728 5728 5728 5729 5729 5730 5731 5733 5734 5734 5732 5731 5731 5731 5732 5732 5732 5732 5734 5735 5735 5735 5736 5736 5735 5735
5788 5787 5786 5784 5783 5782 5781 5780 5779 5778 5777 5775 5774 5772 5771 5769 5768 5766 5765 5763 5762 5760 5759 5757 5756 5755 5753 5752 5751 5749 5748 5746 5745 5744 5742 5741 5740 5739 5738 5737 5736 5735 5734 5733 5732 5731 5730 5729 5728 5727 5726 5725 5724 5723 5722 5721 5720 5720 5719 5718 5718 5718 5718 5718 5719 5720 5721 5724 5726 5726 5725 5724 5724 5723 5723 5723 5725 5725 5725 5726 5727 5727 5727 5727 5728
5781 5780 5779 5778 5776 5775 5774 5773 5772 5771 5769 5768 5766 5765 5763 5762 5760 5759 5757 5755 5754 5752 5751 5749 5748 5747 5745 5744 5742 5741 5740 5738 5737 5735 5734 5733 5731 5730 5729 5728 5728 5726 5726 5724 5723 5722 5721 5719 5718 5717 5716 5715 5714 5713 5712 5712 5711 5710 5709 5709 5708 5708 5707 5707 5707 5708 5709 5711 5713 5715 5717 5718 5718 5717 5714 5714 5716 5716 5717 5717 5717 5718 5719 5719 5719
5775 5774 5772 5771 5769 5768 5766 5765 5764 5763 5761 5760 5759 5757 5756 5754 5752 5750 5749 5747 5745 5743 5742 5740 5739 5738 5736 5735 5733 5732 5730 5729 5728 5726 5725 5724 5722 5721 5720 5719 5718 5716 5715 5714 5713 5712 5711 5710 5709 5707 5706 5705 5704 5703 5701 5701 5700 5699 5699 5699 5699 5698 5697 5696 5696 5696 5697 5697 5699 5701 5703 5706 5710 5711 5708 5706 5707 5707 5708 5708 5708 5708 5709 5709 5710